Tracking 30995 objects as of 5-Jul-2025
HD Live streaming from Space Station
objects crossing your sky now

NOAA 16 DEB

Track NOAA 16 DEB now!
10-day predictions


NORAD ID: 41066
Int'l Code: 2000-055Z
Perigee: 819.8 km
Apogee: 843.5 km
Inclination: 98.7 °
Period: 101.4 minutes
Semi major axis: 7202 km
RCS: Unknown
Launch date: September 21, 2000
Source: United States (US)
Launch site: AIR FORCE WESTERN TEST RANGE (AFWTR)

Note: This is SATELLITE DEBRIS
Your satellite tracking list
Your tracking list is empty




NASA's NSSDC Master Catalog

Two Line Element Set (TLE):
1 41066U 00055Z   25185.76528103  .00000724  00000-0  35851-3 0  9998
2 41066  98.6888 266.5850 0016476 179.6801 180.4389 14.20249993496706
Source of the keplerian elements: AFSPC